<?xml version="1.0" encoding="UTF-8" standalone="no" ?>
<gpx xmlns="http://www.topografix.com/GPX/1/1" xmlns:xsi="http://www.w3.org/2001/XMLSchema-instance" xsi:schemaLocation="http://www.topografix.com/GPX/1/1 http://www.topografix.com/GPX/1/1/gpx.xsd" version="1.1" creator="VisuGPX - https://www.visugpx.com">
  <metadata>
    <name>Lavande et vieilles pierres - Alpes de Haute-Provence</name>
    <desc><![CDATA[Lavande et vieilles pierres - Alpes de HauteProvence
Départ Arrivée - Céreste

Pédaler au milieu des champs de lavande, découvrir des villages aux pierres patinées par le temps, quoi de mieux pour saisir l’âme de la Haute-Provence, discrète et farouche à la fois.]]></desc>
  </metadata>
  <trk>
    <name><![CDATA[010 A la rencontre de la lavande et des vieilles p...]]></name>
    <trkseg>
      <trkpt lat="43.85641" lon="5.59094">
        <ele>382</ele>
        <time>2007-08-22T10:50:18Z</time>
      </trkpt>
      <trkpt lat="43.85732" lon="5.59373">
        <ele>377</ele>
        <time>2007-08-22T10:50:18Z</time>
      </trkpt>
      <trkpt lat="43.85808" lon="5.59371">
        <ele>369</ele>
        <time>2007-08-22T10:50:18Z</time>
      </trkpt>
      <trkpt lat="43.85843" lon="5.59435">
        <ele>366</ele>
        <time>2007-08-22T10:50:18Z</time>
      </trkpt>
      <trkpt lat="43.85941" lon="5.59434">
        <ele>368</ele>
        <time>2007-08-22T10:50:18Z</time>
      </trkpt>
      <trkpt lat="43.85976" lon="5.59492">
        <ele>369</ele>
        <time>2007-08-22T10:50:18Z</time>
      </trkpt>
      <trkpt lat="43.86121" lon="5.59432">
        <ele>381</ele>
        <time>2007-08-22T10:50:18Z</time>
      </trkpt>
      <trkpt lat="43.861" lon="5.59537">
        <ele>380</ele>
        <time>2007-08-22T10:50:18Z</time>
      </trkpt>
      <trkpt lat="43.86243" lon="5.59725">
        <ele>392</ele>
        <time>2007-08-22T10:50:18Z</time>
      </trkpt>
      <trkpt lat="43.86293" lon="5.59871">
        <ele>397</ele>
        <time>2007-08-22T10:50:18Z</time>
      </trkpt>
      <trkpt lat="43.8644" lon="5.60048">
        <ele>404</ele>
        <time>2007-08-22T10:50:18Z</time>
      </trkpt>
      <trkpt lat="43.86656" lon="5.60054">
        <ele>419</ele>
        <time>2007-08-22T10:50:18Z</time>
      </trkpt>
      <trkpt lat="43.86741" lon="5.60233">
        <ele>426</ele>
        <time>2007-08-22T10:50:18Z</time>
      </trkpt>
      <trkpt lat="43.86789" lon="5.60416">
        <ele>423</ele>
        <time>2007-08-22T10:50:18Z</time>
      </trkpt>
      <trkpt lat="43.86797" lon="5.60597">
        <ele>428</ele>
        <time>2007-08-22T10:50:18Z</time>
      </trkpt>
      <trkpt lat="43.86895" lon="5.6064">
        <ele>435</ele>
        <time>2007-08-22T10:50:18Z</time>
      </trkpt>
      <trkpt lat="43.87001" lon="5.6072">
        <ele>444</ele>
        <time>2007-08-22T10:50:18Z</time>
      </trkpt>
      <trkpt lat="43.87056" lon="5.60686">
        <ele>452</ele>
        <time>2007-08-22T10:50:18Z</time>
      </trkpt>
      <trkpt lat="43.87031" lon="5.61058">
        <ele>451</ele>
        <time>2007-08-22T10:50:18Z</time>
      </trkpt>
      <trkpt lat="43.87058" lon="5.6119">
        <ele>451</ele>
        <time>2007-08-22T10:50:18Z</time>
      </trkpt>
      <trkpt lat="43.86993" lon="5.6141">
        <ele>443</ele>
        <time>2007-08-22T10:50:18Z</time>
      </trkpt>
      <trkpt lat="43.86962" lon="5.61557">
        <ele>455</ele>
        <time>2007-08-22T10:50:18Z</time>
      </trkpt>
      <trkpt lat="43.86977" lon="5.61658">
        <ele>456</ele>
        <time>2007-08-22T10:50:18Z</time>
      </trkpt>
      <trkpt lat="43.86924" lon="5.61779">
        <ele>443</ele>
        <time>2007-08-22T10:50:18Z</time>
      </trkpt>
      <trkpt lat="43.87008" lon="5.61803">
        <ele>439</ele>
        <time>2007-08-22T10:50:18Z</time>
      </trkpt>
      <trkpt lat="43.86926" lon="5.61985">
        <ele>436</ele>
        <time>2007-08-22T10:50:18Z</time>
      </trkpt>
      <trkpt lat="43.8693" lon="5.62165">
        <ele>439</ele>
        <time>2007-08-22T10:50:18Z</time>
      </trkpt>
      <trkpt lat="43.86784" lon="5.62393">
        <ele>434</ele>
        <time>2007-08-22T10:50:18Z</time>
      </trkpt>
      <trkpt lat="43.86684" lon="5.62872">
        <ele>436</ele>
        <time>2007-08-22T10:50:18Z</time>
      </trkpt>
      <trkpt lat="43.86707" lon="5.62985">
        <ele>435</ele>
        <time>2007-08-22T10:50:18Z</time>
      </trkpt>
      <trkpt lat="43.86714" lon="5.63216">
        <ele>434</ele>
        <time>2007-08-22T10:50:18Z</time>
      </trkpt>
      <trkpt lat="43.86674" lon="5.63487">
        <ele>435</ele>
        <time>2007-08-22T10:50:18Z</time>
      </trkpt>
      <trkpt lat="43.86869" lon="5.63567">
        <ele>443</ele>
        <time>2007-08-22T10:50:18Z</time>
      </trkpt>
      <trkpt lat="43.86833" lon="5.63745">
        <ele>436</ele>
        <time>2007-08-22T10:50:18Z</time>
      </trkpt>
      <trkpt lat="43.86885" lon="5.64103">
        <ele>450</ele>
        <time>2007-08-22T10:50:18Z</time>
      </trkpt>
      <trkpt lat="43.8708" lon="5.64325">
        <ele>466</ele>
        <time>2007-08-22T10:50:18Z</time>
      </trkpt>
      <trkpt lat="43.87059" lon="5.64741">
        <ele>469</ele>
        <time>2007-08-22T10:50:18Z</time>
      </trkpt>
      <trkpt lat="43.87077" lon="5.65022">
        <ele>473</ele>
        <time>2007-08-22T10:50:18Z</time>
      </trkpt>
      <trkpt lat="43.87165" lon="5.65251">
        <ele>477</ele>
        <time>2007-08-22T10:50:18Z</time>
      </trkpt>
      <trkpt lat="43.87229" lon="5.65342">
        <ele>483</ele>
        <time>2007-08-22T10:50:18Z</time>
      </trkpt>
      <trkpt lat="43.8731" lon="5.65346">
        <ele>488</ele>
        <time>2007-08-22T10:50:18Z</time>
      </trkpt>
      <trkpt lat="43.87363" lon="5.6538">
        <ele>489</ele>
        <time>2007-08-22T10:50:18Z</time>
      </trkpt>
      <trkpt lat="43.87487" lon="5.65431">
        <ele>485</ele>
        <time>2007-08-22T10:50:18Z</time>
      </trkpt>
      <trkpt lat="43.87485" lon="5.65518">
        <ele>477</ele>
        <time>2007-08-22T10:50:18Z</time>
      </trkpt>
      <trkpt lat="43.87381" lon="5.65531">
        <ele>480</ele>
        <time>2007-08-22T10:50:18Z</time>
      </trkpt>
      <trkpt lat="43.87493" lon="5.66122">
        <ele>509</ele>
        <time>2007-08-22T10:50:18Z</time>
      </trkpt>
      <trkpt lat="43.87747" lon="5.66075">
        <ele>543</ele>
        <time>2007-08-22T10:50:18Z</time>
      </trkpt>
      <trkpt lat="43.87842" lon="5.66037">
        <ele>545</ele>
        <time>2007-08-22T10:50:18Z</time>
      </trkpt>
      <trkpt lat="43.87853" lon="5.65838">
        <ele>551</ele>
        <time>2007-08-22T10:50:18Z</time>
      </trkpt>
      <trkpt lat="43.88082" lon="5.65845">
        <ele>564</ele>
        <time>2007-08-22T10:50:18Z</time>
      </trkpt>
      <trkpt lat="43.88174" lon="5.65938">
        <ele>571</ele>
        <time>2007-08-22T10:50:18Z</time>
      </trkpt>
      <trkpt lat="43.88287" lon="5.65901">
        <ele>581</ele>
        <time>2007-08-22T10:50:18Z</time>
      </trkpt>
      <trkpt lat="43.8826" lon="5.66049">
        <ele>572</ele>
        <time>2007-08-22T10:50:18Z</time>
      </trkpt>
      <trkpt lat="43.88352" lon="5.66147">
        <ele>584</ele>
        <time>2007-08-22T10:50:18Z</time>
      </trkpt>
      <trkpt lat="43.884" lon="5.66324">
        <ele>590</ele>
        <time>2007-08-22T10:50:18Z</time>
      </trkpt>
      <trkpt lat="43.88594" lon="5.66479">
        <ele>604</ele>
        <time>2007-08-22T10:50:18Z</time>
      </trkpt>
      <trkpt lat="43.88806" lon="5.66454">
        <ele>618</ele>
        <time>2007-08-22T10:50:18Z</time>
      </trkpt>
      <trkpt lat="43.89115" lon="5.65918">
        <ele>651</ele>
        <time>2007-08-22T10:50:18Z</time>
      </trkpt>
      <trkpt lat="43.89251" lon="5.65864">
        <ele>656</ele>
        <time>2007-08-22T10:50:18Z</time>
      </trkpt>
      <trkpt lat="43.89399" lon="5.65593">
        <ele>671</ele>
        <time>2007-08-22T10:50:18Z</time>
      </trkpt>
      <trkpt lat="43.89442" lon="5.65365">
        <ele>684</ele>
        <time>2007-08-22T10:50:18Z</time>
      </trkpt>
      <trkpt lat="43.89482" lon="5.65367">
        <ele>683</ele>
        <time>2007-08-22T10:50:18Z</time>
      </trkpt>
      <trkpt lat="43.89609" lon="5.65499">
        <ele>685</ele>
        <time>2007-08-22T10:50:18Z</time>
      </trkpt>
      <trkpt lat="43.89829" lon="5.65375">
        <ele>703</ele>
        <time>2007-08-22T10:50:18Z</time>
      </trkpt>
      <trkpt lat="43.89833" lon="5.65537">
        <ele>701</ele>
        <time>2007-08-22T10:50:18Z</time>
      </trkpt>
      <trkpt lat="43.89932" lon="5.6568">
        <ele>708</ele>
        <time>2007-08-22T10:50:18Z</time>
      </trkpt>
      <trkpt lat="43.90101" lon="5.65727">
        <ele>718</ele>
        <time>2007-08-22T10:50:18Z</time>
      </trkpt>
      <trkpt lat="43.90364" lon="5.65512">
        <ele>740</ele>
        <time>2007-08-22T10:50:18Z</time>
      </trkpt>
      <trkpt lat="43.90553" lon="5.65511">
        <ele>747</ele>
        <time>2007-08-22T10:50:18Z</time>
      </trkpt>
      <trkpt lat="43.9066" lon="5.65561">
        <ele>751</ele>
        <time>2007-08-22T10:50:18Z</time>
      </trkpt>
      <trkpt lat="43.90968" lon="5.65348">
        <ele>768</ele>
        <time>2007-08-22T10:50:18Z</time>
      </trkpt>
      <trkpt lat="43.91208" lon="5.653">
        <ele>770</ele>
        <time>2007-08-22T10:50:18Z</time>
      </trkpt>
      <trkpt lat="43.91052" lon="5.65546">
        <ele>762</ele>
        <time>2007-08-22T10:50:18Z</time>
      </trkpt>
      <trkpt lat="43.91263" lon="5.65702">
        <ele>772</ele>
        <time>2007-08-22T10:50:18Z</time>
      </trkpt>
      <trkpt lat="43.91447" lon="5.65706">
        <ele>779</ele>
        <time>2007-08-22T10:50:18Z</time>
      </trkpt>
      <trkpt lat="43.91793" lon="5.65869">
        <ele>786</ele>
        <time>2007-08-22T10:50:18Z</time>
      </trkpt>
      <trkpt lat="43.91949" lon="5.65785">
        <ele>777</ele>
        <time>2007-08-22T10:50:18Z</time>
      </trkpt>
      <trkpt lat="43.92022" lon="5.65578">
        <ele>763</ele>
        <time>2007-08-22T10:50:18Z</time>
      </trkpt>
      <trkpt lat="43.92026" lon="5.6546">
        <ele>778</ele>
        <time>2007-08-22T10:50:18Z</time>
      </trkpt>
      <trkpt lat="43.92112" lon="5.65291">
        <ele>754</ele>
        <time>2007-08-22T10:50:18Z</time>
      </trkpt>
      <trkpt lat="43.92134" lon="5.65006">
        <ele>736</ele>
        <time>2007-08-22T10:50:18Z</time>
      </trkpt>
      <trkpt lat="43.92078" lon="5.64934">
        <ele>734</ele>
        <time>2007-08-22T10:50:18Z</time>
      </trkpt>
      <trkpt lat="43.92128" lon="5.64619">
        <ele>701</ele>
        <time>2007-08-22T10:50:18Z</time>
      </trkpt>
      <trkpt lat="43.92227" lon="5.64638">
        <ele>707</ele>
        <time>2007-08-22T10:50:18Z</time>
      </trkpt>
      <trkpt lat="43.92314" lon="5.64568">
        <ele>707</ele>
        <time>2007-08-22T10:50:18Z</time>
      </trkpt>
      <trkpt lat="43.92425" lon="5.64606">
        <ele>718</ele>
        <time>2007-08-22T10:50:18Z</time>
      </trkpt>
      <trkpt lat="43.92489" lon="5.64734">
        <ele>717</ele>
        <time>2007-08-22T10:50:18Z</time>
      </trkpt>
      <trkpt lat="43.92651" lon="5.64718">
        <ele>730</ele>
        <time>2007-08-22T10:50:18Z</time>
      </trkpt>
      <trkpt lat="43.92773" lon="5.64856">
        <ele>728</ele>
        <time>2007-08-22T10:50:18Z</time>
      </trkpt>
      <trkpt lat="43.9292" lon="5.64896">
        <ele>732</ele>
        <time>2007-08-22T10:50:18Z</time>
      </trkpt>
      <trkpt lat="43.92934" lon="5.64598">
        <ele>762</ele>
        <time>2007-08-22T10:50:18Z</time>
      </trkpt>
      <trkpt lat="43.93013" lon="5.64223">
        <ele>794</ele>
        <time>2007-08-22T10:50:18Z</time>
      </trkpt>
      <trkpt lat="43.93172" lon="5.63865">
        <ele>821</ele>
        <time>2007-08-22T10:50:18Z</time>
      </trkpt>
      <trkpt lat="43.93092" lon="5.63835">
        <ele>816</ele>
        <time>2007-08-22T10:50:18Z</time>
      </trkpt>
      <trkpt lat="43.931" lon="5.63711">
        <ele>826</ele>
        <time>2007-08-22T10:50:18Z</time>
      </trkpt>
      <trkpt lat="43.93144" lon="5.63626">
        <ele>826</ele>
        <time>2007-08-22T10:50:18Z</time>
      </trkpt>
      <trkpt lat="43.93241" lon="5.63663">
        <ele>814</ele>
        <time>2007-08-22T10:50:18Z</time>
      </trkpt>
      <trkpt lat="43.93214" lon="5.63525">
        <ele>816</ele>
        <time>2007-08-22T10:50:18Z</time>
      </trkpt>
      <trkpt lat="43.93571" lon="5.6377">
        <ele>775</ele>
        <time>2007-08-22T10:50:18Z</time>
      </trkpt>
      <trkpt lat="43.93728" lon="5.63797">
        <ele>767</ele>
        <time>2007-08-22T10:50:18Z</time>
      </trkpt>
      <trkpt lat="43.93887" lon="5.63875">
        <ele>753</ele>
        <time>2007-08-22T10:50:18Z</time>
      </trkpt>
      <trkpt lat="43.93987" lon="5.63707">
        <ele>767</ele>
        <time>2007-08-22T10:50:18Z</time>
      </trkpt>
      <trkpt lat="43.94365" lon="5.6371">
        <ele>761</ele>
        <time>2007-08-22T10:50:18Z</time>
      </trkpt>
      <trkpt lat="43.9461" lon="5.63793">
        <ele>769</ele>
        <time>2007-08-22T10:50:18Z</time>
      </trkpt>
      <trkpt lat="43.95094" lon="5.63858">
        <ele>789</ele>
        <time>2007-08-22T10:50:18Z</time>
      </trkpt>
      <trkpt lat="43.95678" lon="5.64017">
        <ele>800</ele>
        <time>2007-08-22T10:50:18Z</time>
      </trkpt>
      <trkpt lat="43.95869" lon="5.64115">
        <ele>800</ele>
        <time>2007-08-22T10:50:18Z</time>
      </trkpt>
      <trkpt lat="43.96343" lon="5.64329">
        <ele>796</ele>
        <time>2007-08-22T10:50:18Z</time>
      </trkpt>
      <trkpt lat="43.96403" lon="5.64283">
        <ele>792</ele>
        <time>2007-08-22T10:50:18Z</time>
      </trkpt>
      <trkpt lat="43.96477" lon="5.64368">
        <ele>793</ele>
        <time>2007-08-22T10:50:18Z</time>
      </trkpt>
      <trkpt lat="43.9661" lon="5.64139">
        <ele>749</ele>
        <time>2007-08-22T10:50:18Z</time>
      </trkpt>
      <trkpt lat="43.96753" lon="5.64179">
        <ele>762</ele>
        <time>2007-08-22T10:50:18Z</time>
      </trkpt>
      <trkpt lat="43.96852" lon="5.64023">
        <ele>743</ele>
        <time>2007-08-22T10:50:18Z</time>
      </trkpt>
      <trkpt lat="43.96961" lon="5.6401">
        <ele>737</ele>
        <time>2007-08-22T10:50:18Z</time>
      </trkpt>
      <trkpt lat="43.97031" lon="5.64052">
        <ele>741</ele>
        <time>2007-08-22T10:50:18Z</time>
      </trkpt>
      <trkpt lat="43.971" lon="5.64018">
        <ele>730</ele>
        <time>2007-08-22T10:50:18Z</time>
      </trkpt>
      <trkpt lat="43.9722" lon="5.64075">
        <ele>729</ele>
        <time>2007-08-22T10:50:18Z</time>
      </trkpt>
      <trkpt lat="43.97232" lon="5.6397">
        <ele>712</ele>
        <time>2007-08-22T10:50:18Z</time>
      </trkpt>
      <trkpt lat="43.9732" lon="5.64025">
        <ele>726</ele>
        <time>2007-08-22T10:50:18Z</time>
      </trkpt>
      <trkpt lat="43.97451" lon="5.64157">
        <ele>718</ele>
        <time>2007-08-22T10:50:18Z</time>
      </trkpt>
      <trkpt lat="43.97651" lon="5.64231">
        <ele>715</ele>
        <time>2007-08-22T10:50:18Z</time>
      </trkpt>
      <trkpt lat="43.97811" lon="5.64452">
        <ele>705</ele>
        <time>2007-08-22T10:50:18Z</time>
      </trkpt>
      <trkpt lat="43.97928" lon="5.64453">
        <ele>699</ele>
        <time>2007-08-22T10:50:18Z</time>
      </trkpt>
      <trkpt lat="43.98051" lon="5.6441">
        <ele>691</ele>
        <time>2007-08-22T10:50:18Z</time>
      </trkpt>
      <trkpt lat="43.98099" lon="5.64451">
        <ele>686</ele>
        <time>2007-08-22T10:50:18Z</time>
      </trkpt>
      <trkpt lat="43.98127" lon="5.64552">
        <ele>679</ele>
        <time>2007-08-22T10:50:18Z</time>
      </trkpt>
      <trkpt lat="43.98361" lon="5.64572">
        <ele>664</ele>
        <time>2007-08-22T10:50:18Z</time>
      </trkpt>
      <trkpt lat="43.98456" lon="5.64702">
        <ele>658</ele>
        <time>2007-08-22T10:50:18Z</time>
      </trkpt>
      <trkpt lat="43.98529" lon="5.64968">
        <ele>650</ele>
        <time>2007-08-22T10:50:18Z</time>
      </trkpt>
      <trkpt lat="43.98922" lon="5.6491">
        <ele>629</ele>
        <time>2007-08-22T10:50:18Z</time>
      </trkpt>
      <trkpt lat="43.98948" lon="5.64787">
        <ele>626</ele>
        <time>2007-08-22T10:50:18Z</time>
      </trkpt>
      <trkpt lat="43.99118" lon="5.64666">
        <ele>624</ele>
        <time>2007-08-22T10:50:18Z</time>
      </trkpt>
      <trkpt lat="43.99243" lon="5.64717">
        <ele>625</ele>
        <time>2007-08-22T10:50:18Z</time>
      </trkpt>
      <trkpt lat="43.9954" lon="5.64566">
        <ele>620</ele>
        <time>2007-08-22T10:50:18Z</time>
      </trkpt>
      <trkpt lat="43.99715" lon="5.6457">
        <ele>617</ele>
        <time>2007-08-22T10:50:18Z</time>
      </trkpt>
      <trkpt lat="43.99956" lon="5.6449">
        <ele>613</ele>
        <time>2007-08-22T10:50:18Z</time>
      </trkpt>
      <trkpt lat="44.00271" lon="5.64496">
        <ele>616</ele>
        <time>2007-08-22T10:50:18Z</time>
      </trkpt>
      <trkpt lat="44.00449" lon="5.64413">
        <ele>616</ele>
        <time>2007-08-22T10:50:18Z</time>
      </trkpt>
      <trkpt lat="44.00693" lon="5.64508">
        <ele>622</ele>
        <time>2007-08-22T10:50:18Z</time>
      </trkpt>
      <trkpt lat="44.01554" lon="5.64621">
        <ele>664</ele>
        <time>2007-08-22T10:50:18Z</time>
      </trkpt>
      <trkpt lat="44.01766" lon="5.64446">
        <ele>676</ele>
        <time>2007-08-22T10:50:18Z</time>
      </trkpt>
      <trkpt lat="44.01846" lon="5.64332">
        <ele>682</ele>
        <time>2007-08-22T10:50:18Z</time>
      </trkpt>
      <trkpt lat="44.01994" lon="5.64204">
        <ele>697</ele>
        <time>2007-08-22T10:50:18Z</time>
      </trkpt>
      <trkpt lat="44.02131" lon="5.64143">
        <ele>691</ele>
        <time>2007-08-22T10:50:18Z</time>
      </trkpt>
      <trkpt lat="44.02257" lon="5.63989">
        <ele>694</ele>
        <time>2007-08-22T10:50:18Z</time>
      </trkpt>
      <trkpt lat="44.02441" lon="5.63993">
        <ele>698</ele>
        <time>2007-08-22T10:50:18Z</time>
      </trkpt>
      <trkpt lat="44.03239" lon="5.6306">
        <ele>751</ele>
        <time>2007-08-22T10:50:18Z</time>
      </trkpt>
      <trkpt lat="44.03358" lon="5.6298">
        <ele>756</ele>
        <time>2007-08-22T10:50:18Z</time>
      </trkpt>
      <trkpt lat="44.03531" lon="5.62778">
        <ele>763</ele>
        <time>2007-08-22T10:50:18Z</time>
      </trkpt>
      <trkpt lat="44.03777" lon="5.6283">
        <ele>784</ele>
        <time>2007-08-22T10:50:18Z</time>
      </trkpt>
      <trkpt lat="44.03854" lon="5.62809">
        <ele>784</ele>
        <time>2007-08-22T10:50:18Z</time>
      </trkpt>
      <trkpt lat="44.03661" lon="5.62648">
        <ele>790</ele>
        <time>2007-08-22T10:50:18Z</time>
      </trkpt>
      <trkpt lat="44.0369" lon="5.62575">
        <ele>783</ele>
        <time>2007-08-22T10:50:18Z</time>
      </trkpt>
      <trkpt lat="44.038" lon="5.62494">
        <ele>796</ele>
        <time>2007-08-22T10:50:18Z</time>
      </trkpt>
      <trkpt lat="44.03979" lon="5.62243">
        <ele>794</ele>
        <time>2007-08-22T10:50:18Z</time>
      </trkpt>
      <trkpt lat="44.04072" lon="5.61974">
        <ele>799</ele>
        <time>2007-08-22T10:50:18Z</time>
      </trkpt>
      <trkpt lat="44.04128" lon="5.61759">
        <ele>806</ele>
        <time>2007-08-22T10:50:18Z</time>
      </trkpt>
      <trkpt lat="44.04146" lon="5.6161">
        <ele>851</ele>
        <time>2007-08-22T10:50:18Z</time>
      </trkpt>
      <trkpt lat="44.04506" lon="5.6178">
        <ele>839</ele>
        <time>2007-08-22T10:50:18Z</time>
      </trkpt>
      <trkpt lat="44.0472" lon="5.61818">
        <ele>849</ele>
        <time>2007-08-22T10:50:18Z</time>
      </trkpt>
      <trkpt lat="44.04935" lon="5.61706">
        <ele>878</ele>
        <time>2007-08-22T10:50:18Z</time>
      </trkpt>
      <trkpt lat="44.05131" lon="5.61617">
        <ele>893</ele>
        <time>2007-08-22T10:50:18Z</time>
      </trkpt>
      <trkpt lat="44.05363" lon="5.61687">
        <ele>884</ele>
        <time>2007-08-22T10:50:18Z</time>
      </trkpt>
      <trkpt lat="44.05533" lon="5.6189">
        <ele>892</ele>
        <time>2007-08-22T10:50:18Z</time>
      </trkpt>
      <trkpt lat="44.05658" lon="5.62059">
        <ele>893</ele>
        <time>2007-08-22T10:50:18Z</time>
      </trkpt>
      <trkpt lat="44.05728" lon="5.62113">
        <ele>895</ele>
        <time>2007-08-22T10:50:18Z</time>
      </trkpt>
      <trkpt lat="44.05784" lon="5.62073">
        <ele>918</ele>
        <time>2007-08-22T10:50:18Z</time>
      </trkpt>
      <trkpt lat="44.05657" lon="5.61947">
        <ele>929</ele>
        <time>2007-08-22T10:50:18Z</time>
      </trkpt>
      <trkpt lat="44.05525" lon="5.61702">
        <ele>940</ele>
        <time>2007-08-22T10:50:18Z</time>
      </trkpt>
      <trkpt lat="44.05229" lon="5.61367">
        <ele>944</ele>
        <time>2007-08-22T10:50:18Z</time>
      </trkpt>
      <trkpt lat="44.04993" lon="5.61272">
        <ele>935</ele>
        <time>2007-08-22T10:50:18Z</time>
      </trkpt>
      <trkpt lat="44.04897" lon="5.61192">
        <ele>932</ele>
        <time>2007-08-22T10:50:18Z</time>
      </trkpt>
      <trkpt lat="44.04918" lon="5.61081">
        <ele>937</ele>
        <time>2007-08-22T10:50:18Z</time>
      </trkpt>
      <trkpt lat="44.0502" lon="5.60974">
        <ele>938</ele>
        <time>2007-08-22T10:50:18Z</time>
      </trkpt>
      <trkpt lat="44.05043" lon="5.60813">
        <ele>934</ele>
        <time>2007-08-22T10:50:18Z</time>
      </trkpt>
      <trkpt lat="44.05328" lon="5.60605">
        <ele>930</ele>
        <time>2007-08-22T10:50:18Z</time>
      </trkpt>
      <trkpt lat="44.05495" lon="5.60615">
        <ele>934</ele>
        <time>2007-08-22T10:50:18Z</time>
      </trkpt>
      <trkpt lat="44.05738" lon="5.6046">
        <ele>937</ele>
        <time>2007-08-22T10:50:18Z</time>
      </trkpt>
      <trkpt lat="44.05964" lon="5.6043">
        <ele>943</ele>
        <time>2007-08-22T10:50:18Z</time>
      </trkpt>
      <trkpt lat="44.06311" lon="5.60232">
        <ele>949</ele>
        <time>2007-08-22T10:50:18Z</time>
      </trkpt>
      <trkpt lat="44.06709" lon="5.60186">
        <ele>961</ele>
        <time>2007-08-22T10:50:18Z</time>
      </trkpt>
      <trkpt lat="44.06934" lon="5.59887">
        <ele>962</ele>
        <time>2007-08-22T10:50:18Z</time>
      </trkpt>
      <trkpt lat="44.07122" lon="5.59748">
        <ele>959</ele>
        <time>2007-08-22T10:50:18Z</time>
      </trkpt>
      <trkpt lat="44.07313" lon="5.59703">
        <ele>962</ele>
        <time>2007-08-22T10:50:18Z</time>
      </trkpt>
      <trkpt lat="44.07359" lon="5.59518">
        <ele>968</ele>
        <time>2007-08-22T10:50:18Z</time>
      </trkpt>
      <trkpt lat="44.07355" lon="5.59324">
        <ele>977</ele>
        <time>2007-08-22T10:50:18Z</time>
      </trkpt>
      <trkpt lat="44.07249" lon="5.59281">
        <ele>982</ele>
        <time>2007-08-22T10:50:18Z</time>
      </trkpt>
      <trkpt lat="44.07175" lon="5.59052">
        <ele>984</ele>
        <time>2007-08-22T10:50:18Z</time>
      </trkpt>
      <trkpt lat="44.07177" lon="5.58222">
        <ele>972</ele>
        <time>2007-08-22T10:50:18Z</time>
      </trkpt>
      <trkpt lat="44.07252" lon="5.57952">
        <ele>965</ele>
        <time>2007-08-22T10:50:18Z</time>
      </trkpt>
      <trkpt lat="44.07447" lon="5.579">
        <ele>953</ele>
        <time>2007-08-22T10:50:18Z</time>
      </trkpt>
      <trkpt lat="44.0752" lon="5.58029">
        <ele>965</ele>
        <time>2007-08-22T10:50:18Z</time>
      </trkpt>
      <trkpt lat="44.07561" lon="5.58007">
        <ele>953</ele>
        <time>2007-08-22T10:50:18Z</time>
      </trkpt>
      <trkpt lat="44.07544" lon="5.57837">
        <ele>953</ele>
        <time>2007-08-22T10:50:18Z</time>
      </trkpt>
      <trkpt lat="44.07259" lon="5.57571">
        <ele>952</ele>
        <time>2007-08-22T10:50:18Z</time>
      </trkpt>
      <trkpt lat="44.07372" lon="5.56792">
        <ele>946</ele>
        <time>2007-08-22T10:50:18Z</time>
      </trkpt>
      <trkpt lat="44.07365" lon="5.56598">
        <ele>945</ele>
        <time>2007-08-22T10:50:18Z</time>
      </trkpt>
      <trkpt lat="44.07404" lon="5.56338">
        <ele>943</ele>
        <time>2007-08-22T10:50:18Z</time>
      </trkpt>
      <trkpt lat="44.07362" lon="5.55924">
        <ele>936</ele>
        <time>2007-08-22T10:50:18Z</time>
      </trkpt>
      <trkpt lat="44.07493" lon="5.559">
        <ele>932</ele>
        <time>2007-08-22T10:50:18Z</time>
      </trkpt>
      <trkpt lat="44.07668" lon="5.55629">
        <ele>924</ele>
        <time>2007-08-22T10:50:18Z</time>
      </trkpt>
      <trkpt lat="44.08015" lon="5.55287">
        <ele>922</ele>
        <time>2007-08-22T10:50:18Z</time>
      </trkpt>
      <trkpt lat="44.08149" lon="5.55032">
        <ele>929</ele>
        <time>2007-08-22T10:50:18Z</time>
      </trkpt>
      <trkpt lat="44.08319" lon="5.54886">
        <ele>933</ele>
        <time>2007-08-22T10:50:18Z</time>
      </trkpt>
      <trkpt lat="44.08301" lon="5.54747">
        <ele>931</ele>
        <time>2007-08-22T10:50:18Z</time>
      </trkpt>
      <trkpt lat="44.08038" lon="5.54682">
        <ele>925</ele>
        <time>2007-08-22T10:50:18Z</time>
      </trkpt>
      <trkpt lat="44.07972" lon="5.54766">
        <ele>924</ele>
        <time>2007-08-22T10:50:18Z</time>
      </trkpt>
      <trkpt lat="44.0774" lon="5.54709">
        <ele>912</ele>
        <time>2007-08-22T10:50:18Z</time>
      </trkpt>
      <trkpt lat="44.07616" lon="5.54627">
        <ele>908</ele>
        <time>2007-08-22T10:50:18Z</time>
      </trkpt>
      <trkpt lat="44.0743" lon="5.54523">
        <ele>905</ele>
        <time>2007-08-22T10:50:18Z</time>
      </trkpt>
      <trkpt lat="44.07028" lon="5.54432">
        <ele>897</ele>
        <time>2007-08-22T10:50:18Z</time>
      </trkpt>
      <trkpt lat="44.06579" lon="5.54406">
        <ele>899</ele>
        <time>2007-08-22T10:50:18Z</time>
      </trkpt>
      <trkpt lat="44.06301" lon="5.54204">
        <ele>887</ele>
        <time>2007-08-22T10:50:18Z</time>
      </trkpt>
      <trkpt lat="44.06149" lon="5.54189">
        <ele>882</ele>
        <time>2007-08-22T10:50:18Z</time>
      </trkpt>
      <trkpt lat="44.05686" lon="5.54331">
        <ele>885</ele>
        <time>2007-08-22T10:50:18Z</time>
      </trkpt>
      <trkpt lat="44.05497" lon="5.54314">
        <ele>879</ele>
        <time>2007-08-22T10:50:18Z</time>
      </trkpt>
      <trkpt lat="44.0531" lon="5.54409">
        <ele>884</ele>
        <time>2007-08-22T10:50:18Z</time>
      </trkpt>
      <trkpt lat="44.04975" lon="5.54478">
        <ele>874</ele>
        <time>2007-08-22T10:50:18Z</time>
      </trkpt>
      <trkpt lat="44.04704" lon="5.54375">
        <ele>864</ele>
        <time>2007-08-22T10:50:18Z</time>
      </trkpt>
      <trkpt lat="44.04366" lon="5.54393">
        <ele>861</ele>
        <time>2007-08-22T10:50:18Z</time>
      </trkpt>
      <trkpt lat="44.03576" lon="5.54305">
        <ele>857</ele>
        <time>2007-08-22T10:50:18Z</time>
      </trkpt>
      <trkpt lat="44.03318" lon="5.54378">
        <ele>855</ele>
        <time>2007-08-22T10:50:18Z</time>
      </trkpt>
      <trkpt lat="44.03154" lon="5.54294">
        <ele>852</ele>
        <time>2007-08-22T10:50:18Z</time>
      </trkpt>
      <trkpt lat="44.02583" lon="5.54293">
        <ele>840</ele>
        <time>2007-08-22T10:50:18Z</time>
      </trkpt>
      <trkpt lat="44.02299" lon="5.54139">
        <ele>845</ele>
        <time>2007-08-22T10:50:18Z</time>
      </trkpt>
      <trkpt lat="44.02137" lon="5.53987">
        <ele>837</ele>
        <time>2007-08-22T10:50:18Z</time>
      </trkpt>
      <trkpt lat="44.0196" lon="5.53908">
        <ele>837</ele>
        <time>2007-08-22T10:50:18Z</time>
      </trkpt>
      <trkpt lat="44.01735" lon="5.53733">
        <ele>835</ele>
        <time>2007-08-22T10:50:18Z</time>
      </trkpt>
      <trkpt lat="44.01319" lon="5.53498">
        <ele>844</ele>
        <time>2007-08-22T10:50:18Z</time>
      </trkpt>
      <trkpt lat="44.00939" lon="5.53564">
        <ele>842</ele>
        <time>2007-08-22T10:50:18Z</time>
      </trkpt>
      <trkpt lat="43.99981" lon="5.53884">
        <ele>851</ele>
        <time>2007-08-22T10:50:18Z</time>
      </trkpt>
      <trkpt lat="43.99796" lon="5.54366">
        <ele>843</ele>
        <time>2007-08-22T10:50:18Z</time>
      </trkpt>
      <trkpt lat="43.9975" lon="5.54849">
        <ele>836</ele>
        <time>2007-08-22T10:50:18Z</time>
      </trkpt>
      <trkpt lat="43.99818" lon="5.55133">
        <ele>833</ele>
        <time>2007-08-22T10:50:18Z</time>
      </trkpt>
      <trkpt lat="43.9974" lon="5.55497">
        <ele>813</ele>
        <time>2007-08-22T10:50:18Z</time>
      </trkpt>
      <trkpt lat="43.99618" lon="5.55496">
        <ele>805</ele>
        <time>2007-08-22T10:50:18Z</time>
      </trkpt>
      <trkpt lat="43.99469" lon="5.55363">
        <ele>804</ele>
        <time>2007-08-22T10:50:18Z</time>
      </trkpt>
      <trkpt lat="43.99419" lon="5.55528">
        <ele>800</ele>
        <time>2007-08-22T10:50:18Z</time>
      </trkpt>
      <trkpt lat="43.99308" lon="5.5564">
        <ele>788</ele>
        <time>2007-08-22T10:50:18Z</time>
      </trkpt>
      <trkpt lat="43.99318" lon="5.55772">
        <ele>774</ele>
        <time>2007-08-22T10:50:18Z</time>
      </trkpt>
      <trkpt lat="43.99323" lon="5.55878">
        <ele>764</ele>
        <time>2007-08-22T10:50:18Z</time>
      </trkpt>
      <trkpt lat="43.99246" lon="5.55905">
        <ele>758</ele>
        <time>2007-08-22T10:50:18Z</time>
      </trkpt>
      <trkpt lat="43.99251" lon="5.56049">
        <ele>740</ele>
        <time>2007-08-22T10:50:18Z</time>
      </trkpt>
      <trkpt lat="43.99342" lon="5.5616">
        <ele>738</ele>
        <time>2007-08-22T10:50:18Z</time>
      </trkpt>
      <trkpt lat="43.99132" lon="5.5626">
        <ele>719</ele>
        <time>2007-08-22T10:50:18Z</time>
      </trkpt>
      <trkpt lat="43.98942" lon="5.56754">
        <ele>679</ele>
        <time>2007-08-22T10:50:18Z</time>
      </trkpt>
      <trkpt lat="43.98518" lon="5.56935">
        <ele>643</ele>
        <time>2007-08-22T10:50:18Z</time>
      </trkpt>
      <trkpt lat="43.98235" lon="5.5662">
        <ele>627</ele>
        <time>2007-08-22T10:50:18Z</time>
      </trkpt>
      <trkpt lat="43.98065" lon="5.56448">
        <ele>647</ele>
        <time>2007-08-22T10:50:18Z</time>
      </trkpt>
      <trkpt lat="43.97803" lon="5.56932">
        <ele>618</ele>
        <time>2007-08-22T10:50:18Z</time>
      </trkpt>
      <trkpt lat="43.97674" lon="5.57791">
        <ele>593</ele>
        <time>2007-08-22T10:50:18Z</time>
      </trkpt>
      <trkpt lat="43.97785" lon="5.57978">
        <ele>606</ele>
        <time>2007-08-22T10:50:18Z</time>
      </trkpt>
      <trkpt lat="43.97615" lon="5.57968">
        <ele>614</ele>
        <time>2007-08-22T10:50:18Z</time>
      </trkpt>
      <trkpt lat="43.97504" lon="5.57905">
        <ele>611</ele>
        <time>2007-08-22T10:50:18Z</time>
      </trkpt>
      <trkpt lat="43.97493" lon="5.57967">
        <ele>630</ele>
        <time>2007-08-22T10:50:18Z</time>
      </trkpt>
      <trkpt lat="43.97691" lon="5.58116">
        <ele>638</ele>
        <time>2007-08-22T10:50:18Z</time>
      </trkpt>
      <trkpt lat="43.97923" lon="5.58359">
        <ele>651</ele>
        <time>2007-08-22T10:50:18Z</time>
      </trkpt>
      <trkpt lat="43.97639" lon="5.58679">
        <ele>637</ele>
        <time>2007-08-22T10:50:18Z</time>
      </trkpt>
      <trkpt lat="43.97828" lon="5.58971">
        <ele>621</ele>
        <time>2007-08-22T10:50:18Z</time>
      </trkpt>
      <trkpt lat="43.97956" lon="5.59202">
        <ele>610</ele>
        <time>2007-08-22T10:50:18Z</time>
      </trkpt>
      <trkpt lat="43.97961" lon="5.59495">
        <ele>622</ele>
        <time>2007-08-22T10:50:18Z</time>
      </trkpt>
      <trkpt lat="43.97929" lon="5.59662">
        <ele>631</ele>
        <time>2007-08-22T10:50:18Z</time>
      </trkpt>
      <trkpt lat="43.97787" lon="5.59728">
        <ele>625</ele>
        <time>2007-08-22T10:50:18Z</time>
      </trkpt>
      <trkpt lat="43.97722" lon="5.59806">
        <ele>615</ele>
        <time>2007-08-22T10:50:18Z</time>
      </trkpt>
      <trkpt lat="43.97587" lon="5.59798">
        <ele>607</ele>
        <time>2007-08-22T10:50:18Z</time>
      </trkpt>
      <trkpt lat="43.97424" lon="5.59683">
        <ele>619</ele>
        <time>2007-08-22T10:50:18Z</time>
      </trkpt>
      <trkpt lat="43.97314" lon="5.59739">
        <ele>607</ele>
        <time>2007-08-22T10:50:18Z</time>
      </trkpt>
      <trkpt lat="43.97296" lon="5.59607">
        <ele>600</ele>
        <time>2007-08-22T10:50:18Z</time>
      </trkpt>
      <trkpt lat="43.97235" lon="5.59684">
        <ele>591</ele>
        <time>2007-08-22T10:50:18Z</time>
      </trkpt>
      <trkpt lat="43.97001" lon="5.59696">
        <ele>578</ele>
        <time>2007-08-22T10:50:18Z</time>
      </trkpt>
      <trkpt lat="43.96662" lon="5.59577">
        <ele>556</ele>
        <time>2007-08-22T10:50:18Z</time>
      </trkpt>
      <trkpt lat="43.96461" lon="5.59546">
        <ele>548</ele>
        <time>2007-08-22T10:50:18Z</time>
      </trkpt>
      <trkpt lat="43.96365" lon="5.59441">
        <ele>550</ele>
        <time>2007-08-22T10:50:18Z</time>
      </trkpt>
      <trkpt lat="43.96176" lon="5.5958">
        <ele>544</ele>
        <time>2007-08-22T10:50:18Z</time>
      </trkpt>
      <trkpt lat="43.95968" lon="5.59643">
        <ele>533</ele>
        <time>2007-08-22T10:50:18Z</time>
      </trkpt>
      <trkpt lat="43.95701" lon="5.59696">
        <ele>520</ele>
        <time>2007-08-22T10:50:18Z</time>
      </trkpt>
      <trkpt lat="43.95484" lon="5.59708">
        <ele>507</ele>
        <time>2007-08-22T10:50:18Z</time>
      </trkpt>
      <trkpt lat="43.95312" lon="5.59736">
        <ele>502</ele>
        <time>2007-08-22T10:50:18Z</time>
      </trkpt>
      <trkpt lat="43.95178" lon="5.59722">
        <ele>491</ele>
        <time>2007-08-22T10:50:18Z</time>
      </trkpt>
      <trkpt lat="43.95085" lon="5.59685">
        <ele>479</ele>
        <time>2007-08-22T10:50:18Z</time>
      </trkpt>
      <trkpt lat="43.95016" lon="5.59725">
        <ele>475</ele>
        <time>2007-08-22T10:50:18Z</time>
      </trkpt>
      <trkpt lat="43.94986" lon="5.59673">
        <ele>468</ele>
        <time>2007-08-22T10:50:18Z</time>
      </trkpt>
      <trkpt lat="43.95047" lon="5.59602">
        <ele>467</ele>
        <time>2007-08-22T10:50:18Z</time>
      </trkpt>
      <trkpt lat="43.95017" lon="5.59532">
        <ele>489</ele>
        <time>2007-08-22T10:50:18Z</time>
      </trkpt>
      <trkpt lat="43.94913" lon="5.59538">
        <ele>473</ele>
        <time>2007-08-22T10:50:18Z</time>
      </trkpt>
      <trkpt lat="43.94754" lon="5.59467">
        <ele>462</ele>
        <time>2007-08-22T10:50:18Z</time>
      </trkpt>
      <trkpt lat="43.9467" lon="5.59419">
        <ele>467</ele>
        <time>2007-08-22T10:50:18Z</time>
      </trkpt>
      <trkpt lat="43.94368" lon="5.5942">
        <ele>456</ele>
        <time>2007-08-22T10:50:18Z</time>
      </trkpt>
      <trkpt lat="43.94211" lon="5.59249">
        <ele>457</ele>
        <time>2007-08-22T10:50:18Z</time>
      </trkpt>
      <trkpt lat="43.94082" lon="5.59223">
        <ele>460</ele>
        <time>2007-08-22T10:50:18Z</time>
      </trkpt>
      <trkpt lat="43.94075" lon="5.59291">
        <ele>458</ele>
        <time>2007-08-22T10:50:18Z</time>
      </trkpt>
      <trkpt lat="43.93941" lon="5.59277">
        <ele>453</ele>
        <time>2007-08-22T10:50:18Z</time>
      </trkpt>
      <trkpt lat="43.93756" lon="5.59273">
        <ele>463</ele>
        <time>2007-08-22T10:50:18Z</time>
      </trkpt>
      <trkpt lat="43.93664" lon="5.59211">
        <ele>465</ele>
        <time>2007-08-22T10:50:18Z</time>
      </trkpt>
      <trkpt lat="43.93602" lon="5.59152">
        <ele>457</ele>
        <time>2007-08-22T10:50:18Z</time>
      </trkpt>
      <trkpt lat="43.9353" lon="5.59173">
        <ele>461</ele>
        <time>2007-08-22T10:50:18Z</time>
      </trkpt>
      <trkpt lat="43.93442" lon="5.59105">
        <ele>489</ele>
        <time>2007-08-22T10:50:18Z</time>
      </trkpt>
      <trkpt lat="43.93488" lon="5.59052">
        <ele>502</ele>
        <time>2007-08-22T10:50:18Z</time>
      </trkpt>
      <trkpt lat="43.93238" lon="5.58851">
        <ele>516</ele>
        <time>2007-08-22T10:50:18Z</time>
      </trkpt>
      <trkpt lat="43.92943" lon="5.58778">
        <ele>514</ele>
        <time>2007-08-22T10:50:18Z</time>
      </trkpt>
      <trkpt lat="43.92811" lon="5.58851">
        <ele>504</ele>
        <time>2007-08-22T10:50:18Z</time>
      </trkpt>
      <trkpt lat="43.92663" lon="5.58837">
        <ele>493</ele>
        <time>2007-08-22T10:50:18Z</time>
      </trkpt>
      <trkpt lat="43.92631" lon="5.58542">
        <ele>454</ele>
        <time>2007-08-22T10:50:18Z</time>
      </trkpt>
      <trkpt lat="43.9252" lon="5.58635">
        <ele>460</ele>
        <time>2007-08-22T10:50:18Z</time>
      </trkpt>
      <trkpt lat="43.92451" lon="5.58688">
        <ele>463</ele>
        <time>2007-08-22T10:50:18Z</time>
      </trkpt>
      <trkpt lat="43.92284" lon="5.58715">
        <ele>460</ele>
        <time>2007-08-22T10:50:18Z</time>
      </trkpt>
      <trkpt lat="43.91965" lon="5.58529">
        <ele>426</ele>
        <time>2007-08-22T10:50:18Z</time>
      </trkpt>
      <trkpt lat="43.91766" lon="5.58269">
        <ele>417</ele>
        <time>2007-08-22T10:50:18Z</time>
      </trkpt>
      <trkpt lat="43.91632" lon="5.58242">
        <ele>413</ele>
        <time>2007-08-22T10:50:18Z</time>
      </trkpt>
      <trkpt lat="43.91497" lon="5.58104">
        <ele>405</ele>
        <time>2007-08-22T10:50:18Z</time>
      </trkpt>
      <trkpt lat="43.91449" lon="5.57908">
        <ele>406</ele>
        <time>2007-08-22T10:50:18Z</time>
      </trkpt>
      <trkpt lat="43.91327" lon="5.57777">
        <ele>400</ele>
        <time>2007-08-22T10:50:18Z</time>
      </trkpt>
      <trkpt lat="43.91141" lon="5.57667">
        <ele>414</ele>
        <time>2007-08-22T10:50:18Z</time>
      </trkpt>
      <trkpt lat="43.90891" lon="5.57609">
        <ele>415</ele>
        <time>2007-08-22T10:50:18Z</time>
      </trkpt>
      <trkpt lat="43.90634" lon="5.57607">
        <ele>404</ele>
        <time>2007-08-22T10:50:18Z</time>
      </trkpt>
      <trkpt lat="43.90508" lon="5.57463">
        <ele>441</ele>
        <time>2007-08-22T10:50:18Z</time>
      </trkpt>
      <trkpt lat="43.90533" lon="5.57228">
        <ele>469</ele>
        <time>2007-08-22T10:50:18Z</time>
      </trkpt>
      <trkpt lat="43.9041" lon="5.57127">
        <ele>479</ele>
        <time>2007-08-22T10:50:18Z</time>
      </trkpt>
      <trkpt lat="43.90399" lon="5.57039">
        <ele>483</ele>
        <time>2007-08-22T10:50:18Z</time>
      </trkpt>
      <trkpt lat="43.9012" lon="5.56905">
        <ele>490</ele>
        <time>2007-08-22T10:50:18Z</time>
      </trkpt>
      <trkpt lat="43.90064" lon="5.56809">
        <ele>500</ele>
        <time>2007-08-22T10:50:18Z</time>
      </trkpt>
      <trkpt lat="43.89883" lon="5.56693">
        <ele>524</ele>
        <time>2007-08-22T10:50:18Z</time>
      </trkpt>
      <trkpt lat="43.8978" lon="5.56687">
        <ele>542</ele>
        <time>2007-08-22T10:50:18Z</time>
      </trkpt>
      <trkpt lat="43.89698" lon="5.56863">
        <ele>554</ele>
        <time>2007-08-22T10:50:18Z</time>
      </trkpt>
      <trkpt lat="43.89636" lon="5.56984">
        <ele>549</ele>
        <time>2007-08-22T10:50:18Z</time>
      </trkpt>
      <trkpt lat="43.89504" lon="5.57051">
        <ele>555</ele>
        <time>2007-08-22T10:50:18Z</time>
      </trkpt>
      <trkpt lat="43.89308" lon="5.57139">
        <ele>544</ele>
        <time>2007-08-22T10:50:18Z</time>
      </trkpt>
      <trkpt lat="43.8918" lon="5.57032">
        <ele>544</ele>
        <time>2007-08-22T10:50:18Z</time>
      </trkpt>
      <trkpt lat="43.88937" lon="5.57043">
        <ele>528</ele>
        <time>2007-08-22T10:50:18Z</time>
      </trkpt>
      <trkpt lat="43.88841" lon="5.57081">
        <ele>513</ele>
        <time>2007-08-22T10:50:18Z</time>
      </trkpt>
      <trkpt lat="43.88703" lon="5.57036">
        <ele>512</ele>
        <time>2007-08-22T10:50:18Z</time>
      </trkpt>
      <trkpt lat="43.8858" lon="5.57091">
        <ele>500</ele>
        <time>2007-08-22T10:50:18Z</time>
      </trkpt>
      <trkpt lat="43.88386" lon="5.57118">
        <ele>485</ele>
        <time>2007-08-22T10:50:18Z</time>
      </trkpt>
      <trkpt lat="43.88476" lon="5.57266">
        <ele>474</ele>
        <time>2007-08-22T10:50:18Z</time>
      </trkpt>
      <trkpt lat="43.88376" lon="5.57304">
        <ele>469</ele>
        <time>2007-08-22T10:50:18Z</time>
      </trkpt>
      <trkpt lat="43.88246" lon="5.5729">
        <ele>461</ele>
        <time>2007-08-22T10:50:18Z</time>
      </trkpt>
      <trkpt lat="43.88181" lon="5.57199">
        <ele>460</ele>
        <time>2007-08-22T10:50:18Z</time>
      </trkpt>
      <trkpt lat="43.88104" lon="5.57071">
        <ele>461</ele>
        <time>2007-08-22T10:50:18Z</time>
      </trkpt>
      <trkpt lat="43.87949" lon="5.5713">
        <ele>441</ele>
        <time>2007-08-22T10:50:18Z</time>
      </trkpt>
      <trkpt lat="43.8751" lon="5.56931">
        <ele>412</ele>
        <time>2007-08-22T10:50:18Z</time>
      </trkpt>
      <trkpt lat="43.87499" lon="5.57154">
        <ele>395</ele>
        <time>2007-08-22T10:50:18Z</time>
      </trkpt>
      <trkpt lat="43.87519" lon="5.57373">
        <ele>385</ele>
        <time>2007-08-22T10:50:18Z</time>
      </trkpt>
      <trkpt lat="43.87568" lon="5.57531">
        <ele>380</ele>
        <time>2007-08-22T10:50:18Z</time>
      </trkpt>
      <trkpt lat="43.87562" lon="5.57736">
        <ele>368</ele>
        <time>2007-08-22T10:50:18Z</time>
      </trkpt>
      <trkpt lat="43.87344" lon="5.57506">
        <ele>356</ele>
        <time>2007-08-22T10:50:18Z</time>
      </trkpt>
      <trkpt lat="43.86964" lon="5.57124">
        <ele>354</ele>
        <time>2007-08-22T10:50:18Z</time>
      </trkpt>
      <trkpt lat="43.86744" lon="5.56962">
        <ele>352</ele>
        <time>2007-08-22T10:50:18Z</time>
      </trkpt>
      <trkpt lat="43.86601" lon="5.56929">
        <ele>349</ele>
        <time>2007-08-22T10:50:18Z</time>
      </trkpt>
      <trkpt lat="43.86376" lon="5.56929">
        <ele>348</ele>
        <time>2007-08-22T10:50:18Z</time>
      </trkpt>
      <trkpt lat="43.86287" lon="5.56743">
        <ele>344</ele>
        <time>2007-08-22T10:50:18Z</time>
      </trkpt>
      <trkpt lat="43.86317" lon="5.56496">
        <ele>345</ele>
        <time>2007-08-22T10:50:18Z</time>
      </trkpt>
      <trkpt lat="43.85984" lon="5.55731">
        <ele>339</ele>
        <time>2007-08-22T10:50:18Z</time>
      </trkpt>
      <trkpt lat="43.85762" lon="5.55663">
        <ele>336</ele>
        <time>2007-08-22T10:50:18Z</time>
      </trkpt>
      <trkpt lat="43.8577" lon="5.55987">
        <ele>333</ele>
        <time>2007-08-22T10:50:18Z</time>
      </trkpt>
      <trkpt lat="43.85638" lon="5.56203">
        <ele>335</ele>
        <time>2007-08-22T10:50:18Z</time>
      </trkpt>
      <trkpt lat="43.85525" lon="5.56371">
        <ele>344</ele>
        <time>2007-08-22T10:50:18Z</time>
      </trkpt>
      <trkpt lat="43.85458" lon="5.56497">
        <ele>350</ele>
        <time>2007-08-22T10:50:18Z</time>
      </trkpt>
      <trkpt lat="43.85464" lon="5.56734">
        <ele>367</ele>
        <time>2007-08-22T10:50:18Z</time>
      </trkpt>
      <trkpt lat="43.85597" lon="5.56971">
        <ele>389</ele>
        <time>2007-08-22T10:50:18Z</time>
      </trkpt>
      <trkpt lat="43.85684" lon="5.57051">
        <ele>392</ele>
        <time>2007-08-22T10:50:18Z</time>
      </trkpt>
      <trkpt lat="43.85679" lon="5.57243">
        <ele>404</ele>
        <time>2007-08-22T10:50:18Z</time>
      </trkpt>
      <trkpt lat="43.85784" lon="5.57336">
        <ele>411</ele>
        <time>2007-08-22T10:50:18Z</time>
      </trkpt>
      <trkpt lat="43.85654" lon="5.5731">
        <ele>416</ele>
        <time>2007-08-22T10:50:18Z</time>
      </trkpt>
      <trkpt lat="43.85612" lon="5.5737">
        <ele>423</ele>
        <time>2007-08-22T10:50:18Z</time>
      </trkpt>
      <trkpt lat="43.85515" lon="5.57439">
        <ele>433</ele>
        <time>2007-08-22T10:50:18Z</time>
      </trkpt>
      <trkpt lat="43.85473" lon="5.57511">
        <ele>438</ele>
        <time>2007-08-22T10:50:18Z</time>
      </trkpt>
      <trkpt lat="43.85567" lon="5.57654">
        <ele>450</ele>
        <time>2007-08-22T10:50:18Z</time>
      </trkpt>
      <trkpt lat="43.8566" lon="5.58473">
        <ele>412</ele>
        <time>2007-08-22T10:50:18Z</time>
      </trkpt>
      <trkpt lat="43.85607" lon="5.58582">
        <ele>410</ele>
        <time>2007-08-22T10:50:18Z</time>
      </trkpt>
      <trkpt lat="43.856" lon="5.58961">
        <ele>390</ele>
        <time>2007-08-22T10:50:18Z</time>
      </trkpt>
      <trkpt lat="43.85636" lon="5.58969">
        <ele>384</ele>
        <time>2007-08-22T10:50:18Z</time>
      </trkpt>
      <trkpt lat="43.85641" lon="5.59094">
        <ele>382</ele>
        <time>2007-08-22T10:50:18Z</time>
      </trkpt>
    </trkseg>
  </trk>
</gpx>